{"data":{"norad_id":61919,"intl_designator":"2024-207H","name":"STARLINK-32547","alt_names":[],"object_type":"PAYLOAD","status":"ACTIVE","operator":null,"country":"US","launch_date":"2024-11-11","launch_site_code":"AFETR","launch_vehicle":null,"mission":null,"orbit_class":"UNKNOWN","rcs_meters":null,"size_class":null,"mass_kg":null,"dimensions":null,"purposes":["comms"],"wikipedia_slug":null,"has_3d_model":false,"image_url":null,"decayed_at":null,"tle_current":{"epoch":"2026-09-21T16:44:55.218912Z","epoch_age_seconds":85423,"freshness":"FRESH","line1":"1 61919U 24207H   26264.69786133  .00012001  00000+0  44479-3 0  9998","line2":"2 61919  43.0034 254.3946 0001530 277.8318  82.2360 15.27590418104693","mean_motion":15.27590418,"eccentricity":0.000153,"inclination_deg":43.0034,"raan_deg":254.3946,"arg_perigee_deg":277.8318,"mean_anomaly_deg":82.236,"bstar":0.00044479,"rev_number":10469,"period_min":94.266105824709,"perigee_km":481.96814427724,"apogee_km":484.06765767694,"semimajor_km":6861.1549009771,"source":"CELESTRAK","updated_at":"2026-09-22T09:00:49.449903Z"}}}